This is the latest recevied weather packets stored in our database for station/object WR9A-13. If no packets are shown the sender has not sent any weather packets the latest 10 day(s).
| Time | Temp. | Humidity | Pressure | Rain* | Wind** | Luminosity | Snow |
|---|---|---|---|---|---|---|---|
| 1788029722 | 29.44° C | 55% | 1021.2 hPa | 0 mm | - | - | - |
| 1788029438 | 29.44° C | 56% | 1021.3 hPa | 0 mm | - | - | - |
| 1788029127 | 29.44° C | 56% | 1021.2 hPa | 0 mm | - | - | - |
| 1788028815 | 28.89° C | 54% | 1021.2 hPa | 0 mm | - | - | - |
| 1788028532 | 28.89° C | 52% | 1021.4 hPa | 0 mm | - | - | - |
| 1788028220 | 28.89° C | 54% | 1021.6 hPa | 0 mm | - | - | - |
| 1788027916 | 28.89° C | 53% | 1021.6 hPa | 0 mm | - | - | - |
| 1788027619 | 28.89° C | 53% | 1021.7 hPa | 0 mm | - | - | - |
| 1788027315 | 29.44° C | 52% | 1021.8 hPa | 0 mm | - | - | - |
| 1788027031 | 29.44° C | 52% | 1021.9 hPa | 0 mm | - | - | - |
| 1788026719 | 29.44° C | 52% | 1022 hPa | 0 mm | - | - | - |
| 1788026430 | 29.44° C | 52% | 1022 hPa | 0 mm | - | - | - |
| 1788026117 | 29.44° C | 53% | 1022.1 hPa | 0 mm | - | - | - |
| 1788025815 | 28.89° C | 55% | 1022.2 hPa | 0 mm | - | - | - |
| 1788025525 | 28.89° C | 56% | 1022.3 hPa | 0 mm | - | - | - |
| 1788025222 | 28.33° C | 53% | 1022.2 hPa | 0 mm | - | - | - |
| 1788024928 | 28.89° C | 54% | 1022.2 hPa | 0 mm | - | - | - |
| 1788024626 | 28.89° C | 53% | 1022.3 hPa | 0 mm | - | - | - |
| 1788024316 | 29.44° C | 54% | 1022.5 hPa | 0 mm | - | - | - |
| 1788024032 | 28.89° C | 54% | 1022.5 hPa | 0 mm | - | - | - |
| 1788023720 | 28.89° C | 55% | 1022.6 hPa | 0 mm | - | - | - |
| 1788023417 | 28.89° C | 57% | 1022.6 hPa | 0 mm | - | - | - |
| 1788023126 | 28.33° C | 59% | 1022.7 hPa | 0 mm | - | - | - |
| 1788022817 | 28.33° C | 58% | 1022.7 hPa | 0 mm | - | - | - |
| 1788022534 | 28.33° C | 56% | 1022.7 hPa | 0 mm | - | - | - |
* Rain latest hour (hover to see other rain measurements)
** Current wind speed in m/s (hover to see current wind gust speed)